STARLINK-1494, 45760

Orbit data source: Space-Track

STARLINK-1494, 45760 is a payload satellite owned by SpaceX/Seattle (US) in LEO that was launched on Sat, 13 Jun 2020 UTC via an FALCON 9 launch vehicle from the Air Force Eastern Test Range (AFETR). Payload-class satellites include a variety of spacecraft equipped with specific instruments for various scientific and technological missions. These include communications satellites like Starlink; space stations such as the ISS; scientific satellites like the Hubble; Earth observation satellites from companies like Planet Labs, Umbra, and HawkEye 360; GPS; miniature CubeSats for education and research; and military/defense satellites.

Loading next visibility...
Identifier
45760, 2020-038AG
Orbit
LEO
Country
Flag of USUS
Related business
Manufacturer
SpaceX/Seattle
Mission
Partially operational Commercial Communications
Bus & Motor
STARLINK, Unknown motor
Mass
260 kg wet, ~248 kg dry
Launch date (UTC)
2020-06-13 (6 years ago)
Launch vehicle
FALCON 9
Launch site
Air Force Eastern Test Range (AFETR)
Object type
Payload
Rocket body
Debris
Shape & HBR
Box + 1 Pan, 10.1 m
Radar Cross Section
13.562 m², Large (>1 m²)

Expand to show TLE details & history
Last TLE update: 8 hours ago

TLE from 8 hours ago
0 STARLINK-1494
1 45760U 20038AG  25346.93622413  .00050450  00000-0  72833-3 0  9995
2 45760  53.0521 217.0357 0005377 138.5589 221.5830 15.55476091303815
Epoch: 2025-12-12T22:28Z
TLE epoch observation values (Epoch: 2025-12-12T22:28:09.764Z)
Latitude
-0.00004°
Longitude
158.12429°
Altitude
404.394 km
Speed
7.668 km/s
True Right ascension
14h 28m 08s
True Declination
0° 00' 00"
Sunlit
Object was in daylight at epoch
Visualization orbit readout
Latitude
Unknown
Longitude
Unknown
Altitude
Unknown
Speed
Unknown
Apparent Right ascension
Unknown
Apparent Declination
Unknown
Sunlit
N/A
Visualization observer readout
Local Sidereal Time
05:23:36
Azimuth
Unknown
Elevation
Unknown
Doppler factor
Unknown
Orbital elements
Apogee altitude
404.691 km
Perigee altitude
397.401 km
Semi-major axis
6,779.183 km
Eccentricity
0.00054
Inclination
53.0521°
RAAN
217.0357°
Arg. of periapsis
138.5589°
True anomaly
221.54213°
Mean anomaly
221.583°
Eccentric anomaly
221.56256°
Mean motion
3.88846 °/min
Orbital period
92.58 mins
BSTAR
0.00072833
Loading maneuver chart data...
Computing Atmospheric mass density...

Documentation

Showing up to 5 results
|